Time,TemperatureF,DewpointF,PressureIn,WindDirection,WindDirectionDegrees,WindSpeedMPH,WindSpeedGustMPH,Humidity,HourlyPrecipIn,Conditions,Clouds,dailyrainin,SoftwareType,DateUTC
2013-02-03 00:14:00,8.6,6.0,30.07,SE,128,0.0,0.0,87,0.00,,,0.00,weatherlink.com 1.10,2013-02-03 05:14:00,
2013-02-03 00:29:00,9.1,6.0,30.07,SE,128,0.0,0.0,87,0.00,,,0.00,weatherlink.com 1.10,2013-02-03 05:29:00,
2013-02-03 00:44:00,9.0,6.0,30.06,SE,128,0.0,0.0,87,0.00,,,0.00,weatherlink.com 1.10,2013-02-03 05:44:00,
2013-02-03 00:59:00,9.5,6.0,30.06,SE,128,0.0,0.0,87,0.00,,,0.00,weatherlink.com 1.10,2013-02-03 05:59:00,
2013-02-03 01:14:00,9.8,7.0,30.05,SE,128,0.0,0.0,87,0.00,,,0.00,weatherlink.com 1.10,2013-02-03 06:14:00,
2013-02-03 01:29:00,10.2,7.0,30.04,SE,128,0.0,0.0,87,0.00,,,0.00,weatherlink.com 1.10,2013-02-03 06:29:00,
2013-02-03 01:45:00,10.5,7.0,30.04,SW,225,0.0,0.0,87,0.00,,,0.00,weatherlink.com 1.10,2013-02-03 06:45:00,
2013-02-03 02:00:00,10.7,8.0,30.04,SW,225,0.0,0.0,87,0.00,,,0.00,weatherlink.com 1.10,2013-02-03 07:00:00,
2013-02-03 02:15:00,11.0,8.0,30.03,SW,222,0.0,0.0,87,0.00,,,0.00,weatherlink.com 1.10,2013-02-03 07:15:00,
2013-02-03 02:30:00,11.1,8.0,30.03,SSE,160,0.0,0.0,87,0.00,,,0.00,weatherlink.com 1.10,2013-02-03 07:30:00,
2013-02-03 02:45:00,11.2,8.0,30.03,SSE,165,0.0,0.0,85,0.00,,,0.00,weatherlink.com 1.10,2013-02-03 07:45:00,
2013-02-03 02:59:00,11.1,7.0,30.03,SSE,158,0.0,0.0,84,0.00,,,0.00,weatherlink.com 1.10,2013-02-03 07:59:00,
2013-02-03 03:14:00,11.1,7.0,30.02,SSE,158,0.0,0.0,84,0.00,,,0.00,weatherlink.com 1.10,2013-02-03 08:14:00,
2013-02-03 03:29:00,11.2,7.0,30.02,SSE,163,0.0,3.0,84,0.00,,,0.00,weatherlink.com 1.10,2013-02-03 08:29:00,
2013-02-03 03:44:00,11.3,7.0,30.01,South,171,0.0,2.0,83,0.00,,,0.00,weatherlink.com 1.10,2013-02-03 08:44:00,
2013-02-03 04:00:00,11.3,7.0,30.00,SW,215,0.0,0.0,82,0.00,,,0.00,weatherlink.com 1.10,2013-02-03 09:00:00,
2013-02-03 04:15:00,11.3,7.0,30.00,SSW,197,0.0,2.0,83,0.00,,,0.00,weatherlink.com 1.10,2013-02-03 09:15:00,
2013-02-03 04:30:00,11.3,7.0,29.99,West,274,0.0,3.0,83,0.00,,,0.00,weatherlink.com 1.10,2013-02-03 09:30:00,
2013-02-03 04:45:00,11.2,7.0,29.99,SW,221,0.0,1.0,83,0.00,,,0.00,weatherlink.com 1.10,2013-02-03 09:45:00,
2013-02-03 05:00:00,11.3,7.0,29.98,SSE,153,0.0,0.0,84,0.00,,,0.00,weatherlink.com 1.10,2013-02-03 10:00:00,
2013-02-03 05:16:00,11.4,8.0,29.98,SSE,159,0.0,0.0,84,0.00,,,0.00,weatherlink.com 1.10,2013-02-03 10:16:00,
2013-02-03 05:30:00,11.4,8.0,29.97,South,176,0.0,1.0,84,0.00,,,0.00,weatherlink.com 1.10,2013-02-03 10:30:00,
2013-02-03 05:45:00,11.2,7.0,29.96,SSE,161,2.0,3.0,84,0.00,,,0.00,weatherlink.com 1.10,2013-02-03 10:45:00,
2013-02-03 06:00:00,11.0,7.0,29.97,ESE,114,0.0,0.0,84,0.00,,,0.00,weatherlink.com 1.10,2013-02-03 11:00:00,
2013-02-03 06:15:00,11.1,8.0,29.96,SE,129,0.0,1.0,85,0.00,,,0.00,weatherlink.com 1.10,2013-02-03 11:15:00,
2013-02-03 06:30:00,11.3,8.0,29.96,SE,132,0.0,4.0,85,0.00,,,0.00,weatherlink.com 1.10,2013-02-03 11:30:00,
2013-02-03 06:45:00,11.5,8.0,29.96,SSW,205,0.0,2.0,85,0.00,,,0.00,weatherlink.com 1.10,2013-02-03 11:45:00,
2013-02-03 07:00:00,11.6,8.0,29.95,East,90,0.0,4.0,85,0.00,,,0.00,weatherlink.com 1.10,2013-02-03 12:00:00,
2013-02-03 07:15:00,11.7,8.0,29.95,SSE,166,3.0,4.0,85,0.00,,,0.00,weatherlink.com 1.10,2013-02-03 12:15:00,
2013-02-03 07:30:00,11.9,9.0,29.95,SE,131,0.0,4.0,86,0.00,,,0.00,weatherlink.com 1.10,2013-02-03 12:30:00,
2013-02-03 07:45:00,12.1,9.0,29.95,SW,232,0.0,3.0,86,0.00,,,0.00,weatherlink.com 1.10,2013-02-03 12:45:00,
2013-02-03 08:00:00,12.3,9.0,29.96,WSW,255,0.0,0.0,86,0.00,,,0.00,weatherlink.com 1.10,2013-02-03 13:00:00,
2013-02-03 08:15:00,12.6,9.0,29.96,SSE,153,0.0,0.0,86,0.00,,,0.00,weatherlink.com 1.10,2013-02-03 13:15:00,
2013-02-03 08:30:00,12.8,9.0,29.96,SSW,194,0.0,0.0,86,0.00,,,0.00,weatherlink.com 1.10,2013-02-03 13:30:00,
2013-02-03 08:45:00,12.9,10.0,29.96,South,174,0.0,4.0,87,0.00,,,0.00,weatherlink.com 1.10,2013-02-03 13:45:00,
2013-02-03 09:00:00,13.2,10.0,29.95,SSE,158,0.0,2.0,87,0.00,,,0.00,weatherlink.com 1.10,2013-02-03 14:00:00,
2013-02-03 09:16:00,13.5,10.0,29.95,West,259,0.0,0.0,87,0.00,,,0.00,weatherlink.com 1.10,2013-02-03 14:16:00,
2013-02-03 09:30:00,13.9,11.0,29.95,SSW,210,0.0,2.0,87,0.00,,,0.00,weatherlink.com 1.10,2013-02-03 14:30:00,
2013-02-03 09:46:00,14.7,12.0,29.95,WSW,253,0.0,0.0,87,0.00,,,0.00,weatherlink.com 1.10,2013-02-03 14:46:00,
2013-02-03 10:00:00,15.2,12.0,29.95,WNW,284,0.0,1.0,87,0.00,,,0.00,weatherlink.com 1.10,2013-02-03 15:00:00,
2013-02-03 10:15:00,15.4,12.0,29.94,West,264,0.0,4.0,87,0.00,,,0.00,weatherlink.com 1.10,2013-02-03 15:15:00,
2013-02-03 10:46:00,16.4,13.0,29.94,West,259,0.0,3.0,87,0.00,,,0.00,weatherlink.com 1.10,2013-02-03 15:46:00,
2013-02-03 11:01:00,17.2,14.0,29.94,West,273,0.0,3.0,87,0.00,,,0.00,weatherlink.com 1.10,2013-02-03 16:01:00,
2013-02-03 11:16:00,17.7,15.0,29.94,West,281,2.0,5.0,87,0.00,,,0.00,weatherlink.com 1.10,2013-02-03 16:16:00,
2013-02-03 11:31:00,18.0,15.0,29.94,NW,304,2.0,4.0,87,0.00,,,0.00,weatherlink.com 1.10,2013-02-03 16:31:00,
2013-02-03 11:46:00,18.3,15.0,29.93,NW,307,0.0,3.0,87,0.00,,,0.00,weatherlink.com 1.10,2013-02-03 16:46:00,
2013-02-03 12:01:00,19.1,16.0,29.94,WNW,292,0.0,4.0,87,0.00,,,0.00,weatherlink.com 1.10,2013-02-03 17:01:00,
2013-02-03 12:16:00,19.4,16.0,29.93,NW,311,2.0,5.0,87,0.00,,,0.00,weatherlink.com 1.10,2013-02-03 17:16:00,
2013-02-03 12:31:00,19.6,16.0,29.93,WNW,300,5.0,7.0,86,0.00,,,0.00,weatherlink.com 1.10,2013-02-03 17:31:00,
2013-02-03 12:46:00,19.2,16.0,29.93,WSW,252,1.0,9.0,86,0.00,,,0.00,weatherlink.com 1.10,2013-02-03 17:46:00,
2013-02-03 13:01:00,19.0,16.0,29.93,WSW,253,3.0,9.0,86,0.00,,,0.00,weatherlink.com 1.10,2013-02-03 18:01:00,
2013-02-03 13:16:00,18.9,15.0,29.93,West,263,2.0,10.0,86,0.00,,,0.00,weatherlink.com 1.10,2013-02-03 18:16:00,
2013-02-03 13:31:00,19.1,16.0,29.93,NNW,335,3.0,8.0,87,0.00,,,0.00,weatherlink.com 1.10,2013-02-03 18:31:00,
2013-02-03 13:46:00,18.9,15.0,29.93,NW,314,4.0,11.0,86,0.00,,,0.00,weatherlink.com 1.10,2013-02-03 18:46:00,
2013-02-03 14:01:00,18.6,15.0,29.94,West,281,4.0,10.0,86,0.00,,,0.00,weatherlink.com 1.10,2013-02-03 19:01:00,
2013-02-03 14:16:00,18.5,15.0,29.94,WNW,285,3.0,12.0,86,0.00,,,0.00,weatherlink.com 1.10,2013-02-03 19:16:00,
2013-02-03 14:31:00,18.8,15.0,29.95,WNW,293,6.0,10.0,86,0.00,,,0.00,weatherlink.com 1.10,2013-02-03 19:31:00,
2013-02-03 14:46:00,18.8,15.0,29.95,WNW,296,1.0,8.0,85,0.00,,,0.00,weatherlink.com 1.10,2013-02-03 19:46:00,
2013-02-03 15:01:00,18.6,15.0,29.95,NW,311,4.0,10.0,86,0.00,,,0.00,weatherlink.com 1.10,2013-02-03 20:01:00,
2013-02-03 15:16:00,18.6,15.0,29.96,North,352,2.0,6.0,86,0.00,,,0.00,weatherlink.com 1.10,2013-02-03 20:16:00,
2013-02-03 15:31:00,18.2,14.0,29.97,WNW,295,5.0,11.0,85,0.00,,,0.00,weatherlink.com 1.10,2013-02-03 20:31:00,
2013-02-03 15:46:00,18.1,14.0,29.98,NNW,329,2.0,12.0,84,0.00,,,0.00,weatherlink.com 1.10,2013-02-03 20:46:00,
2013-02-03 16:02:00,17.8,14.0,29.98,WNW,298,1.0,9.0,84,0.00,,,0.00,weatherlink.com 1.10,2013-02-03 21:02:00,
2013-02-03 16:16:00,17.7,14.0,29.99,North,349,3.0,10.0,85,0.00,,,0.00,weatherlink.com 1.10,2013-02-03 21:16:00,
2013-02-03 16:31:00,17.8,14.0,29.99,NW,313,1.0,9.0,85,0.00,,,0.00,weatherlink.com 1.10,2013-02-03 21:31:00,
2013-02-03 16:46:00,17.8,14.0,30.00,NW,308,3.0,6.0,85,0.00,,,0.00,weatherlink.com 1.10,2013-02-03 21:46:00,
2013-02-03 17:01:00,17.7,14.0,30.00,NW,314,1.0,5.0,86,0.00,,,0.00,weatherlink.com 1.10,2013-02-03 22:01:00,
2013-02-03 17:16:00,17.5,14.0,30.00,WNW,295,2.0,5.0,86,0.00,,,0.00,weatherlink.com 1.10,2013-02-03 22:16:00,
2013-02-03 17:31:00,17.5,14.0,30.01,WNW,297,3.0,5.0,85,0.00,,,0.00,weatherlink.com 1.10,2013-02-03 22:31:00,
2013-02-03 17:46:00,17.4,14.0,30.01,NW,323,2.0,4.0,85,0.00,,,0.00,weatherlink.com 1.10,2013-02-03 22:46:00,
2013-02-03 18:01:00,17.4,14.0,30.01,WNW,298,0.0,4.0,85,0.00,,,0.00,weatherlink.com 1.10,2013-02-03 23:01:00,
2013-02-03 18:16:00,17.4,14.0,30.02,WNW,291,0.0,4.0,85,0.00,,,0.00,weatherlink.com 1.10,2013-02-03 23:16:00,
2013-02-03 18:34:00,17.2,14.0,30.02,NW,309,2.0,3.0,86,0.00,,,0.00,weatherlink.com 1.10,2013-02-03 23:34:00,
2013-02-03 18:47:00,17.1,14.0,30.02,WNW,290,3.0,4.0,86,0.00,,,0.00,weatherlink.com 1.10,2013-02-03 23:47:00,
2013-02-03 19:01:00,17.2,14.0,30.03,NNW,337,2.0,3.0,86,0.00,,,0.00,weatherlink.com 1.10,2013-02-04 00:01:00,
2013-02-03 19:17:00,17.2,14.0,30.03,WNW,285,0.0,3.0,86,0.00,,,0.00,weatherlink.com 1.10,2013-02-04 00:17:00,
2013-02-03 19:31:00,17.1,14.0,30.03,West,271,0.0,1.0,86,0.00,,,0.00,weatherlink.com 1.10,2013-02-04 00:31:00,
2013-02-03 19:46:00,17.1,14.0,30.04,West,270,0.0,0.0,86,0.00,,,0.00,weatherlink.com 1.10,2013-02-04 00:46:00,
2013-02-03 20:01:00,17.0,14.0,30.04,West,280,0.0,0.0,86,0.00,,,0.00,weatherlink.com 1.10,2013-02-04 01:01:00,
2013-02-03 20:16:00,17.1,14.0,30.04,NW,323,0.0,0.0,86,0.00,,,0.00,weatherlink.com 1.10,2013-02-04 01:16:00,
2013-02-03 20:31:00,17.2,14.0,30.05,West,278,1.0,2.0,86,0.00,,,0.00,weatherlink.com 1.10,2013-02-04 01:31:00,
2013-02-03 20:46:00,17.3,14.0,30.05,WNW,303,2.0,4.0,86,0.00,,,0.00,weatherlink.com 1.10,2013-02-04 01:46:00,
2013-02-03 21:02:00,17.4,14.0,30.05,NNW,335,0.0,5.0,85,0.00,,,0.00,weatherlink.com 1.10,2013-02-04 02:02:00,
2013-02-03 21:16:00,17.3,14.0,30.05,NNW,339,0.0,4.0,85,0.00,,,0.00,weatherlink.com 1.10,2013-02-04 02:16:00,
2013-02-03 21:31:00,17.2,14.0,30.05,West,281,0.0,2.0,85,0.00,,,0.00,weatherlink.com 1.10,2013-02-04 02:31:00,
2013-02-03 21:47:00,17.3,14.0,30.06,WNW,302,0.0,0.0,85,0.00,,,0.00,weatherlink.com 1.10,2013-02-04 02:47:00,
2013-02-03 22:04:00,17.2,14.0,30.06,West,270,0.0,0.0,85,0.00,,,0.00,weatherlink.com 1.10,2013-02-04 03:04:00,
2013-02-03 22:16:00,17.1,13.0,30.06,NNW,330,0.0,0.0,85,0.00,,,0.00,weatherlink.com 1.10,2013-02-04 03:16:00,
2013-02-03 22:31:00,17.0,14.0,30.05,NE,48,0.0,0.0,86,0.00,,,0.00,weatherlink.com 1.10,2013-02-04 03:31:00,
2013-02-03 22:46:00,16.8,13.0,30.05,ENE,62,0.0,0.0,86,0.00,,,0.00,weatherlink.com 1.10,2013-02-04 03:46:00,
2013-02-03 23:01:00,16.7,13.0,30.05,West,271,0.0,0.0,86,0.00,,,0.00,weatherlink.com 1.10,2013-02-04 04:01:00,
2013-02-03 23:16:00,16.7,13.0,30.05,West,269,0.0,0.0,86,0.00,,,0.00,weatherlink.com 1.10,2013-02-04 04:16:00,
2013-02-03 23:49:00,16.5,13.0,30.05,WSW,252,0.0,0.0,86,0.00,,,0.00,weatherlink.com 1.10,2013-02-04 04:49:00,